Hourly Weather Bolshie Ostrogi

Today, 5 August, Thursday

Time Temperature Precipitation Wind Pressure Humidity
00:00 +15°C° 0 mm 2 mps 744 mmHg 79%
01:00 +15°C° 0 mm 2 mps 744 mmHg 79%
02:00 +15°C° 0 mm 2 mps 743 mmHg 79%
03:00 +15°C° 1.5 mm 2 mps 743 mmHg 85%
04:00 +15°C° 1.5 mm 2 mps 743 mmHg 91%
05:00 +14°C° 1.5 mm 2 mps 743 mmHg 97%
06:00 +13°C° 0.5 mm 3 mps 743 mmHg 96%
07:00 +14°C° 0.5 mm 3 mps 743 mmHg 96%
08:00 +14°C° 0.5 mm 3 mps 742 mmHg 95%
09:00 +15°C° 0.1 mm 4 mps 742 mmHg 91%
10:00 +17°C° 0.1 mm 4 mps 742 mmHg 88%
11:00 +18°C° 0.1 mm 4 mps 742 mmHg 84%
12:00 +19°C° 0.1 mm 4 mps 742 mmHg 78%
13:00 +20°C° 0.1 mm 3 mps 742 mmHg 72%
14:00 +22°C° 0.1 mm 3 mps 741 mmHg 66%
15:00 +21°C° 0.5 mm 3 mps 741 mmHg 70%
16:00 +21°C° 0.5 mm 2 mps 741 mmHg 73%
17:00 +21°C° 0.5 mm 2 mps 741 mmHg 77%
18:00 +20°C° 0.1 mm 2 mps 741 mmHg 81%
19:00 +18°C° 0.1 mm 2 mps 741 mmHg 85%
20:00 +17°C° 0.1 mm 2 mps 741 mmHg 89%
21:00 +17°C° 0 mm 2 mps 740 mmHg 91%
22:00 +16°C° 0 mm 2 mps 740 mmHg 92%
23:00 +14°C° 0 mm 3 mps 740 mmHg 94%

Tomorrow, 6 August, Friday

Time Temperature Precipitation Wind Pressure Humidity
00:00 +15°C° 0 mm 2 mps 740 mmHg 94%
01:00 +15°C° 0 mm 2 mps 740 mmHg 94%
02:00 +15°C° 0 mm 2 mps 740 mmHg 94%
03:00 +15°C° 0 mm 2 mps 739 mmHg 94%
04:00 +16°C° 0 mm 3 mps 739 mmHg 94%
05:00 +16°C° 0 mm 3 mps 739 mmHg 94%
06:00 +16°C° 1.1 mm 3 mps 738 mmHg 95%
07:00 +17°C° 1.1 mm 3 mps 738 mmHg 96%
08:00 +17°C° 1.1 mm 4 mps 738 mmHg 97%
09:00 +17°C° 2.3 mm 4 mps 737 mmHg 97%
10:00 +18°C° 2.3 mm 4 mps 737 mmHg 97%
11:00 +17°C° 2.3 mm 5 mps 737 mmHg 96%
12:00 +19°C° 1 mm 4 mps 737 mmHg 95%
13:00 +20°C° 1 mm 4 mps 737 mmHg 93%
14:00 +20°C° 1 mm 4 mps 736 mmHg 91%
15:00 +20°C° 1.4 mm 4 mps 736 mmHg 91%
16:00 +20°C° 1.4 mm 4 mps 736 mmHg 91%
17:00 +20°C° 1.4 mm 4 mps 736 mmHg 91%
18:00 +20°C° 2 mm 4 mps 736 mmHg 93%
19:00 +19°C° 2 mm 4 mps 736 mmHg 94%
20:00 +19°C° 2 mm 4 mps 736 mmHg 95%
21:00 +18°C° 0.1 mm 4 mps 736 mmHg 96%
22:00 +18°C° 0.1 mm 4 mps 736 mmHg 97%
23:00 +18°C° 0.1 mm 3 mps 736 mmHg 97%

Day after tomorrow, 7 August, Saturday

Time Temperature Precipitation Wind Pressure Humidity
00:00 +17°C° 0 mm 3 mps 736 mmHg 97%
01:00 +17°C° 0 mm 3 mps 736 mmHg 97%
02:00 +17°C° 0 mm 3 mps 736 mmHg 97%
03:00 +17°C° 0.1 mm 2 mps 736 mmHg 97%
04:00 +17°C° 0.1 mm 2 mps 736 mmHg 97%
05:00 +17°C° 0.1 mm 2 mps 736 mmHg 97%
06:00 +17°C° 0 mm 2 mps 736 mmHg 94%
07:00 +17°C° 0 mm 2 mps 737 mmHg 90%
08:00 +18°C° 0 mm 2 mps 737 mmHg 87%
09:00 +19°C° 0 mm 3 mps 737 mmHg 82%
10:00 +19°C° 0 mm 4 mps 738 mmHg 76%
11:00 +20°C° 0 mm 4 mps 738 mmHg 71%
12:00 +20°C° 0 mm 5 mps 738 mmHg 71%
13:00 +19°C° 0 mm 5 mps 738 mmHg 70%
14:00 +19°C° 0 mm 5 mps 739 mmHg 70%
15:00 +19°C° 0 mm 5 mps 739 mmHg 70%
16:00 +17°C° 0 mm 5 mps 739 mmHg 70%
17:00 +17°C° 0 mm 5 mps 740 mmHg 70%
18:00 +17°C° 0 mm 4 mps 740 mmHg 75%
19:00 +16°C° 0 mm 3 mps 740 mmHg 80%
20:00 +14°C° 0 mm 3 mps 740 mmHg 85%
21:00 +14°C° 0 mm 3 mps 741 mmHg 83%
22:00 +14°C° 0 mm 3 mps 741 mmHg 80%
23:00 +14°C° 0 mm 3 mps 741 mmHg 78%

8 August, Sunday

Time Temperature Precipitation Wind Pressure Humidity
00:00 +14°C° 0 mm 3 mps 741 mmHg 80%
01:00 +13°C° 0 mm 3 mps 741 mmHg 82%
02:00 +12°C° 0 mm 3 mps 742 mmHg 85%
03:00 +12°C° 0 mm 3 mps 742 mmHg 86%
04:00 +12°C° 0 mm 3 mps 742 mmHg 88%
05:00 +12°C° 0 mm 3 mps 742 mmHg 89%
06:00 +14°C° 0 mm 3 mps 743 mmHg 83%
07:00 +17°C° 0 mm 3 mps 743 mmHg 77%
08:00 +19°C° 0 mm 3 mps 743 mmHg 71%
09:00 +21°C° 0 mm 3 mps 743 mmHg 67%
10:00 +22°C° 0 mm 3 mps 744 mmHg 63%
11:00 +25°C° 0 mm 3 mps 744 mmHg 59%
12:00 +25°C° 0 mm 3 mps 744 mmHg 57%
13:00 +26°C° 0 mm 3 mps 744 mmHg 55%
14:00 +27°C° 0 mm 3 mps 744 mmHg 53%
15:00 +26°C° 0 mm 3 mps 744 mmHg 57%
16:00 +26°C° 0 mm 2 mps 744 mmHg 61%
17:00 +26°C° 0 mm 2 mps 744 mmHg 65%
18:00 +24°C° 0 mm 2 mps 744 mmHg 69%
19:00 +21°C° 0 mm 2 mps 744 mmHg 73%
20:00 +21°C° 0 mm 1 mps 744 mmHg 76%
21:00 +19°C° 0 mm 2 mps 744 mmHg 77%
22:00 +19°C° 0 mm 2 mps 745 mmHg 78%
23:00 +18°C° 0 mm 3 mps 745 mmHg 78%

9 August, Monday

Time Temperature Precipitation Wind Pressure Humidity
00:00 +18°C° 0 mm 3 mps 745 mmHg 79%
01:00 +18°C° 0 mm 3 mps 745 mmHg 80%
02:00 +17°C° 0 mm 3 mps 745 mmHg 81%
03:00 +17°C° 0 mm 3 mps 744 mmHg 81%
04:00 +17°C° 0 mm 3 mps 744 mmHg 82%
05:00 +17°C° 0 mm 3 mps 744 mmHg 82%
06:00 +19°C° 0 mm 3 mps 745 mmHg 77%
07:00 +20°C° 0 mm 3 mps 745 mmHg 72%
08:00 +22°C° 0 mm 3 mps 745 mmHg 67%
09:00 +25°C° 0 mm 3 mps 745 mmHg 63%
10:00 +26°C° 0 mm 4 mps 745 mmHg 58%
11:00 +28°C° 0 mm 4 mps 745 mmHg 54%
12:00 +28°C° 0 mm 4 mps 745 mmHg 52%
13:00 +29°C° 0 mm 4 mps 745 mmHg 49%
14:00 +29°C° 0 mm 3 mps 745 mmHg 47%
15:00 +29°C° 0 mm 3 mps 744 mmHg 51%
16:00 +29°C° 0 mm 3 mps 744 mmHg 54%
17:00 +28°C° 0 mm 2 mps 744 mmHg 58%
18:00 +26°C° 0.1 mm 2 mps 744 mmHg 63%
19:00 +24°C° 0.1 mm 2 mps 744 mmHg 69%
20:00 +21°C° 0.1 mm 2 mps 744 mmHg 75%
21:00 +20°C° 0.1 mm 2 mps 744 mmHg 79%
22:00 +20°C° 0.1 mm 2 mps 744 mmHg 83%
23:00 +19°C° 0.1 mm 2 mps 744 mmHg 86%

10 August, Tuesday

Time Temperature Precipitation Wind Pressure Humidity
00:00 +18°C° 0.2 mm 2 mps 744 mmHg 89%
01:00 +18°C° 0.2 mm 2 mps 744 mmHg 92%
02:00 +18°C° 0.2 mm 2 mps 745 mmHg 95%
03:00 +18°C° 0.5 mm 2 mps 745 mmHg 96%
04:00 +17°C° 0.5 mm 2 mps 745 mmHg 97%
05:00 +17°C° 0.5 mm 2 mps 745 mmHg 98%
06:00 +18°C° 0 mm 2 mps 745 mmHg 95%
07:00 +19°C° 0 mm 3 mps 745 mmHg 92%
08:00 +20°C° 0 mm 3 mps 745 mmHg 89%
09:00 +21°C° 0 mm 3 mps 745 mmHg 83%
10:00 +22°C° 0 mm 3 mps 745 mmHg 77%
11:00 +24°C° 0 mm 3 mps 745 mmHg 72%
12:00 +25°C° 0 mm 3 mps 745 mmHg 69%
13:00 +25°C° 0 mm 3 mps 745 mmHg 66%
14:00 +25°C° 0 mm 2 mps 745 mmHg 64%
15:00 +25°C° 0 mm 3 mps 745 mmHg 65%
16:00 +25°C° 0 mm 3 mps 745 mmHg 66%
17:00 +25°C° 0 mm 3 mps 744 mmHg 66%
18:00 +24°C° 0.4 mm 3 mps 744 mmHg 73%
19:00 +21°C° 0.4 mm 3 mps 744 mmHg 80%
20:00 +19°C° 0.4 mm 3 mps 744 mmHg 86%
21:00 +19°C° 0.5 mm 3 mps 744 mmHg 88%
22:00 +18°C° 0.5 mm 3 mps 744 mmHg 90%
23:00 +18°C° 0.5 mm 3 mps 744 mmHg 91%
Show more

We Need Your Consent

Meteoprog and our Service Providers may store and access personal data such as cookies, device identifiers or other similar technologies on your device and process such data to personalise content and ads, as well as provide social media features and to analyse the traffic.

  • Store and/or access information on your device

    Cookies, device identifiers or other information can be stored or accessed on your device for the purposes indicated above.

  • Personalised ads and content, ad and content measurement, audience insights, and products development

    Ads and content can be personalised based on a profile. More data can be added to better personalise ads and content. Ad and content performance can be measured. Insights about the audience who saw the ads and content can be derived. Such data can be used to develop or improve user’s experience, systems and software.

By clicking ‘I Agree’ you will allow the use of indicated cookies, device identifiers, web beacons or other similar technologies. Your settings can be changed in the browser on your device.

For certain purposes, legitimate interests may be relied on, rather than consent. You can read more about this in our Privacy and Cookie Policy.